This demonstration page uses our WeatherBlox Daily Observations layout. Learn more.

Left ArrowRight Arrow

Hourly Observations for February 24, 2022

Temp ( °F °C ) Dew Point ( °F °C ) Humidity (%) Winds ( mph kmh ) Pressure ( in mb ) Visibility ( mi km ) Precip ( " mm )
2:56 am 02:56 Mostly Clear 0 -17.8 -7 -21.7 72 72 ENE 6 9 30.48 1032 10 16 0.00 0.00
3:56 am 03:56 Cloudy 1 -17.2 -6 -21.1 72 72 NE 7 11 30.48 1032 10 16 0.00 0.00
4:56 am 04:56 Mostly Clear 0 -17.8 -6 -21.1 76 76 NNE 12 19 30.45 1031 10 16 0.00 0.00
5:56 am 05:56 Mostly Cloudy 1 -17.2 -5 -20.6 75 75 NE 12 19 30.45 1031 10 16 0.00 0.00
6:14 am 06:14 Cloudy 1 -17 -6 -21 71 71 NE 9 15 30.57 1035 10 16 0.00 0.00
6:46 am 06:46 Cloudy 1 -17 -4 -20 78 78 ENE 13 20 30.54 1034 9 14 0.00 0.00
6:56 am 06:56 Mostly Cloudy 1 -17.2 -4 -20 79 79 NE 12 19 30.43 1031 10 16 0.00 0.00
7:56 am 07:56 Cloudy 2 -16.7 -4 -20 76 76 NNE 9 15 30.45 1031 10 16 0.00 0.00
8:49 am 08:49 Cloudy 3 -16 -2 -19 78 78 NE 12 19 30.55 1035 10 16 0.00 0.00
8:56 am 08:56 Cloudy 3 -16.1 -3 -19.4 76 76 NE 13 20 30.45 1031 8 13 0.00 0.00
9:03 am 09:03 Cloudy 3 -16 -2 -19 78 78 NNE 9 15 30.55 1035 10 16 0.00 0.00
9:31 am 09:31 Cloudy with Light Snow 7 -14 -2 -19 66 66 NNE 10 17 30.52 1034 8 13 0.00 0.00
9:56 am 09:56 Cloudy 7 -13.9 -2 -18.9 66 66 NE 9 15 30.44 1031 9 14 0.00 0.00
10:56 am 10:56 Cloudy 10 -12.2 -1 -18.3 61 61 NE 6 9 30.43 1031 10 16 0.00 0.00
11:05 am 11:05 Cloudy 12 -11 0 -18 57 57 NNE 8 13 30.48 1032 10 16 0.00 0.00
11:23 am 11:23 Cloudy 12 -11 1 -17 62 62 NNW 8 13 30.47 1032 10 16 0.00 0.00
11:56 am 11:56 Mostly Cloudy 14 -10 -1 -18.3 51 51 VRB 7 11 30.41 1030 10 16 0.00 0.00
12:56 pm 12:56 Cloudy 16 -8.9 0 -17.8 49 49 N 7 11 30.38 1029 10 16 0.00 0.00
1:28 pm 13:28 Cloudy 18 -8 1 -17 49 49 VRB 7 11 30.38 1029 10 16 0.00 0.00
1:56 pm 13:56 Mostly Cloudy 19 -7.2 1 -17.2 45 45 VRB 5 7 30.33 1027 10 16 0.00 0.00
2:56 pm 14:56 Mostly Cloudy 20 -6.7 1 -17.2 43 43 N 13 20 30.32 1027 10 16 0.00 0.00
3:56 pm 15:56 Mostly Cloudy 17 -8.3 0 -17.8 47 47 N 13 20 30.33 1027 10 16 0.00 0.00
4:56 pm 16:56 Partly Cloudy 15 -9.4 3 -16.1 59 59 N 15 24 30.37 1029 9 14 0.00 0.00
5:56 pm 17:56 Sunny 13 -10.6 1 -17.2 59 59 NNW 12 19 30.40 1029 10 16 0.00 0.00
6:56 pm 18:56 Clear 8 -13.3 -1 -18.3 66 66 N 8 13 30.44 1031 10 16 0.00 0.00
7:56 pm 19:56 Clear 6 -14.4 -1 -18.3 73 73 N 8 13 30.47 1032 10 16 0.00 0.00
8:56 pm 20:56 Clear 2 -16.7 -5 -20.6 72 72 NNE 8 13 30.48 1032 10 16 0.00 0.00
9:56 pm 21:56 Clear 1 -17.2 -5 -20.6 75 75 NNE 6 9 30.50 1033 10 16 0.00 0.00
10:56 pm 22:56 Clear 0 -17.8 -6 -21.1 76 76 NNE 7 11 30.51 1033 10 16 0.00 0.00
11:56 pm 23:56 Clear -1 -18.3 -7 -21.7 75 75 Calm 30.53 1034 10 16 0.00 0.00

Powered by AerisWeather